Regional Weather Roundup
Issued by NWS Green Bay, WI

Home | Current Version | Previous Version | Graphics & Text | Print | Product List | Glossary Off
Versions: 1 2 3 4 5 6 7 8 9 10 11 12 13 14 15 16 17 18 19 20 21 22 23 24 25 26 27 28 29 30 31 32 33 34 35 36 37 38 39 40 41 42 43 44 45 46 47 48 49 50

000
ASUS43 KGRB 310500
RWRGRB

NORTH-CENTRAL AND NORTHEAST WISCONSIN REGIONAL WEATHER ROUNDUP
NATIONAL WEATHER SERVICE GREEN BAY WI
1200 AM CDT SUN JUL 31 2016

WIZ005-009-010>012-018-019-310600-
NORTH CENTRAL WISCONSIN

CITY           SKY/WX    TMP DP  RH WIND       PRES   REMARKS
IRONWOOD       CLEAR     66  57  72 S7        30.04S
MANITOWISH WTR NOT AVBL
ARBOR VITAE    NOT AVBL
EAGLE RIVER    NOT AVBL
LAND O LAKES   NOT AVBL
RHINELANDER    CLEAR     54  51  90 CALM      30.10S FOG
PHILLIPS       CLEAR     64  58  82 SE3       30.08R
ANTIGO         NOT AVBL
TOMAHAWK       CLEAR     55  53  94 CALM      30.09S
MERRILL        CLEAR     56  55  98 CALM      30.10R
$$

WIZ013-073-310600-
NORTHEAST WISCONSIN

CITY           SKY/WX    TMP DP  RH WIND       PRES   REMARKS
IRON MOUNTAIN  CLEAR     55  50  83 CALM      30.08S
MARINETTE      CLEAR    N/A N/A N/A N3        30.06S
$$

WIZ017-030-035>037-045-310600-
CENTRAL WISCONSIN

CITY           SKY/WX    TMP DP  RH WIND       PRES   REMARKS
MEDFORD        NOT AVBL
WAUSAU         CLEAR     60  54  80 CALM      30.07R
MOSINEE        NOT AVBL
MARSHFIELD     MOCLDY    63  55  75 CALM      30.07R
WISC RAPIDS    CLEAR     60  54  80 CALM      30.07S
STEVENS POINT  NOT AVBL
WAUPACA        NOT AVBL
SHAWANO        NOT AVBL
CLINTONVILLE   CLEAR     57  54  88 CALM      30.06S
WAUTOMA        CLEAR     59  57  93 CALM      30.06S
$$

WIZ038-039-048-051-310600-
FOX VALLEY

CITY           SKY/WX    TMP DP  RH WIND       PRES   REMARKS
NWS GREEN BAY  PTCLDY    59  59 100 CALM      30.05F
APPLETON       CLEAR     61  52  72 N6        30.04S
OSHKOSH        CLEAR     63  55  75 CALM      30.04F
FOND DU LAC    CLEAR     61  57  87 CALM      30.04F
$$

WIZ022-050-052-310600-
EAST CENTRAL WISCONSIN

CITY           SKY/WX    TMP DP  RH WIND       PRES   REMARKS
EPHRAIM        FAIR      65  60  84 NE3       30.05S
WASHINGTON ISL NOT AVBL
STURGEON BAY   CLEAR     67  59  75 NE5       30.05F
MANITOWOC      NOT AVBL
SHEBOYGAN      CLEAR     62  57  83 CALM      30.03F
$$

LMZ563-521-522-541>543-310600-
LAKESHORE

STATION/POSITION TIME  TEMP    WIND        PRES    VSBY  WAVE
                       AIR SEA DIR/SP/G                  HT/PER
                 (UTC) (F)     (DEG/KT/KT) (MB)    (MI)  (FT/S)
SHEBOYGAN LKSHOR 0400   67     340/  8/  9 1017.2S
KEWAUNEE LKSHORE 0400   64     290/  2/  4 1016.7S
ALGOMA MARINA    0413          310/  6/  8   N/A
NORTHPORT PIER   0400   70      40/  5/  8 1017.6S
N MID LAKE BUOY  0350   71 70  100/ 12/ 16 1016.7F         2/ 3
S GREEN BAY BUOY 0400   71 71   50/  8/ 10 1017.0S
SISTER BAY LKSHO 0406   66        CALM       N/A
CHAMBERS ISLAND  0400   71      30/  8/ 10 1017.6S
MENOMINEE LKSHOR 0400   72      30/  9/ 10 1016.7F
$$



USA.gov is the U.S. government's official web portal to all federal, state and local government web resources and services.